Miscellaneous Local Product
Issued by NWS North Platte, NE

Home | Current Version | Previous Version | Graphics & Text | Print | Product List | Glossary On
Versions: 1 2 3 4 5 6 7 8 9 10 11 12 13 14 15 16 17 18 19 20 21 22 23 24 25 26 27 28 29 30 31 32 33 34 35 36 37 38 39 40 41 42 43 44 45 46 47 48 49 50
000
AXUS43 KLBF 281610
MISLBF


WESTERN AND NORTH CENTRAL NEBRASKA HOURLY WEATHER ROUNDUP
NATIONAL WEATHER SERVICE NORTH PLATTE NE
1100 AM CDT TUE OCT 28 2014

***STATIONS NOT REPORTING VARIABLES SUCH AS SKY/WEATHER OR
PRESSURE ARE PROVIDED BY THE NEBRASKA DEPARTMENT OF
ROADS...RAWS...AND APRS NETWORKS...AND ARE NOT UNDER
NATIONAL WEATHER SERVICE QUALITY CONTROL***

...OBSERVATIONS IN AND NEAR THE EASTERN PANHANDLE OF NEBRASKA...

CITY           SKY/WX    TMP DP  RH WIND       PRES   REMARKS
PINE RIDGE     SUNNY     43  24  47 W12       30.16R
CHADRON        MOSUNNY   43  24  47 W16       30.20R
ALLIANCE       MOSUNNY   42  25  50 NW12      30.19R
SIDNEY         SUNNY     44  29  55 NW8       30.21R
WHITECLAY        N/A     41  21  43 W15         N/A
RUSHVILLE        N/A     41  15  35 NW26        N/A
CRESCENT LAKE    N/A     42  28  58 NW9         N/A
LISCO            N/A     38  29  68 W7          N/A  WCI  33
BIG SPRINGS      N/A     39  29  69 CALM        N/A
LEWELLEN         N/A     41  28  58 W9          N/A
$$

...OBSERVATIONS IN NORTH CENTRAL NEBRASKA...

CITY           SKY/WX    TMP DP  RH WIND       PRES   REMARKS
VALENTINE      SUNNY     42  27  55 NW16      30.13S
THEDFORD       SUNNY     46  31  56 NW10G20   30.15S
AINSWORTH      SUNNY     41  27  57 NW20      30.14R
O`NEILL        SUNNY     45  30  56 NW24G32   30.10S
ORD            SUNNY     47  30  51 NW13      30.12R
BROKEN BOW     SUNNY     48  30  49 NW14      30.14R
BROWNLEE         N/A     45  30  56 NW15        N/A
SPRINGVIEW       N/A     44  29  57 W15G26      N/A
BREWSTER         N/A     47  30  52 NW16        N/A
ROSE             N/A     44  30  56 SW17        N/A
NEWPORT          N/A     43  27  52 W21         N/A
SARGENT          N/A     46  32  58 NW6         N/A
COMSTOCK         N/A     51  28  41 NW9         N/A
CHAMBERS         N/A     46  27  47 W15G26      N/A
EWING            N/A     47  32  55 W12G24      N/A
$$

...OBSERVATIONS IN SOUTHWEST NEBRASKA AND FAR NORTHEAST COLORADO...

CITY           SKY/WX    TMP DP  RH WIND       PRES   REMARKS
WRAY           FAIR      49  24  38 NW10      30.23S
HOLYOKE        FAIR      46  27  46 N13       30.21S
IMPERIAL       MOSUNNY   48  26  42 N15       30.20R
OGALLALA       SUNNY     48  27  44 NW22      30.19R
NORTH PLATTE   SUNNY     44  29  55 NW8       30.18R
MCCOOK         PTSUNNY   43  30  60 W7        30.20R
LEXINGTON      MOSUNNY   44  32  63 W12       30.18R
PAXTON           N/A     38  32  80 W7          N/A  WCI  33
SUTHERLAND       N/A     41  25  54 W7          N/A
BRADY            N/A     40  31  71 CALM        N/A
GOTHENBURG       N/A     38  28  67 W5          N/A  WCI  34
CALLAWAY         N/A     39  33  78 NW3         N/A
$$

...SOME WEATHER OBSERVATIONS FROM AROUND THE REGION...

CITY           SKY/WX    TMP DP  RH WIND       PRES   REMARKS
DENVER         SUNNY     46  24  42 W10       30.20R
LARAMIE        SUNNY     36  17  46 E8        30.20R WCI  30
CHEYENNE       SUNNY     42  18  37 CALM      30.19R
SCOTTSBLUFF    SUNNY     38  29  70 NW8       30.22R WCI  32
RAPID CITY     SUNNY     40  25  55 VRB3      30.14S
PIERRE         CLOUDY    43  30  60 NW26G33   30.05R
WINNER         FAIR      44  28  53 NW22G30   30.10R
SIOUX FALLS    PTSUNNY   43  32  65 NW31G37   29.98R
OMAHA          MOSUNNY   53  30  41 NW17G24   30.08R
GRAND ISLAND   SUNNY     49  29  46 NW14      30.15R
KANSAS CITY    PTSUNNY   57  33  40 NW12      30.11S
WICHITA        PTSUNNY   58  38  47 N5        30.19R
HAYS           PTSUNNY   46  34  61 W3        30.19R
LIBERAL        CLOUDY    52  34  50 NW8       30.23S
GOODLAND       PTSUNNY   48  26  42 N15       30.23R
$$



USA.gov is the U.S. government's official web portal to all federal, state and local government web resources and services.